Date String (YYYY-MM-DD hh:mm:ss) UTC,Instrument flags,Ambient pressure (hPa),Sample flow (lpm),Bypass flow (lpm),Sample temperature (°C),Ambient temperature (°C),ASC tube jacket temperature (°C),LED temperature (°C),Box temperature (°C),Sample RH (%),Span deviation,Mass concentration (μg/m³),Mass concentration (μg/m³),Mass concentration (μg/m³)
DateTimeUTC,F1_M11,P_M11,Q1_M11,Q2_M11,T1_M11,T2_M11,T3_M11,T4_M11,T5_M11,U1_M11,ZSPAN_M11,X0_M11,X2_M11,X1_M11
2021-11-02 23:00:00,,0830.1,5.00,0.00,24.9,24.1,00.0,33.9,26.7,21.2,-001.5,0016.41,0011.72,0011.26
2021-11-02 23:01:00,,0830.1,5.01,0.00,24.9,24.1,00.0,33.9,26.7,21.2,-001.3,0016.73,0011.78,0011.30
2021-11-02 23:02:00,,0830.1,4.99,0.00,24.9,24.1,00.0,33.9,26.7,21.1,-001.4,0016.73,0011.79,0011.32
2021-11-02 23:03:00,,0830.1,5.01,0.00,24.9,24.1,00.0,33.9,26.7,21.1,-001.4,0016.72,0011.79,0011.34
2021-11-02 23:04:00,,0830.2,4.99,0.00,24.9,24.1,00.0,33.9,26.7,21.3,-001.3,0016.95,0011.81,0011.36
2021-11-02 23:05:00,,0830.2,5.00,0.00,24.9,24.1,00.0,33.9,26.7,21.4,-001.3,0017.02,0011.83,0011.39
2021-11-02 23:06:00,,0830.2,5.00,0.00,24.9,24.1,00.0,33.9,26.7,21.4,-001.3,0017.27,0011.84,0011.41
2021-11-02 23:07:00,,0830.3,5.01,0.00,24.9,24.1,00.0,33.9,26.7,21.4,-001.4,0017.75,0011.87,0011.43
2021-11-02 23:08:00,,0830.2,4.99,0.00,24.9,24.1,00.0,33.9,26.7,21.4,-001.1,0017.62,0011.90,0011.47
2021-11-02 23:09:00,,0830.2,4.99,0.00,24.9,24.1,00.0,33.9,26.7,21.3,-000.9,0017.25,0011.95,0011.51
2021-11-02 23:10:00,,0830.2,5.00,0.00,24.9,24.1,00.0,33.9,26.7,21.2,-001.0,0016.62,0011.96,0011.54
2021-11-02 23:11:00,,0830.2,5.00,0.00,24.9,24.1,00.0,33.9,26.8,21.3,-000.9,0016.42,0011.97,0011.58
2021-11-02 23:12:00,,0830.2,5.01,0.00,24.9,24.1,00.0,33.9,26.8,21.3,-001.0,0016.21,0011.99,0011.59
2021-11-02 23:13:00,,0830.1,4.98,0.00,24.9,24.1,00.0,33.9,26.7,21.2,-001.0,0016.46,0012.02,0011.62
2021-11-02 23:14:00,,0830.2,5.01,0.00,24.9,24.1,00.0,33.9,26.7,21.3,-001.2,0017.06,0012.08,0011.65
2021-11-02 23:15:00,,0830.2,5.00,0.00,24.9,24.1,00.0,33.9,26.7,21.3,-001.3,0017.06,0012.09,0011.66
2021-11-02 23:16:00,,0830.2,4.98,0.00,24.9,24.1,00.0,33.9,26.7,21.2,-001.3,0017.17,0012.12,0011.68
2021-11-02 23:17:00,,0830.2,5.00,0.00,24.9,24.1,00.0,33.9,26.7,21.3,-001.2,0017.10,0012.18,0011.70
2021-11-02 23:18:00,,0830.2,4.99,0.00,24.9,24.1,00.0,33.9,26.7,21.2,-001.2,0016.68,0012.19,0011.71
2021-11-02 23:19:00,,0830.2,5.00,0.00,24.9,24.1,00.0,33.9,26.7,21.4,-001.2,0016.09,0012.20,0011.69
2021-11-02 23:20:00,,0830.2,5.01,0.00,24.9,24.1,00.0,33.9,26.7,21.4,-001.5,0016.13,0012.20,0011.68
2021-11-02 23:21:00,,0830.2,4.98,0.00,24.9,24.1,00.0,33.9,26.7,21.7,-001.5,0016.17,0012.19,0011.66
2021-11-02 23:22:00,,0830.3,5.00,0.00,24.9,24.1,00.0,33.9,26.7,21.7,-001.3,0016.17,0012.17,0011.64
2021-11-02 23:23:00,,0830.2,5.00,0.00,24.9,24.1,00.0,33.9,26.7,21.7,-001.3,0016.37,0012.18,0011.64
2021-11-02 23:24:00,,0830.2,5.01,0.00,24.9,24.1,00.0,33.9,26.7,21.7,-001.2,0016.44,0012.20,0011.62
2021-11-02 23:25:00,,0830.3,4.99,0.00,24.9,24.1,00.0,33.9,26.7,21.6,-001.1,0015.92,0012.15,0011.61
2021-11-02 23:26:00,,0830.3,5.00,0.00,24.9,24.1,00.0,33.9,26.7,21.5,-000.9,0015.71,0012.14,0011.60
2021-11-02 23:27:00,,0830.3,5.00,0.00,24.9,24.1,00.0,33.9,26.7,21.5,-001.1,0015.38,0012.15,0011.59
2021-11-02 23:28:00,,0830.3,5.00,0.00,24.9,24.1,00.0,33.9,26.7,21.6,-001.1,0015.24,0012.13,0011.57
2021-11-02 23:29:00,,0830.3,5.00,0.00,24.9,24.1,00.0,33.9,26.7,21.7,-001.0,0015.27,0012.13,0011.55
2021-11-02 23:30:00,,0830.3,5.00,0.00,24.9,24.1,00.0,33.9,26.7,21.6,-001.2,0015.17,0012.10,0011.54
2021-11-02 23:31:00,,0830.3,4.99,0.00,24.9,24.1,00.0,33.9,26.7,21.6,-001.3,0015.08,0012.09,0011.54
2021-11-02 23:32:00,,0830.4,5.00,0.00,24.9,24.1,00.0,33.9,26.7,21.6,-001.4,0015.04,0012.09,0011.54
2021-11-02 23:33:00,,0830.4,5.01,0.00,24.9,24.1,00.0,33.9,26.8,21.7,-001.5,0014.98,0012.07,0011.53
2021-11-02 23:34:00,,0830.4,4.99,0.00,24.9,24.1,00.0,33.9,26.7,21.6,-001.7,0014.75,0012.04,0011.52
2021-11-02 23:35:00,,0830.5,5.01,0.00,24.9,24.1,00.0,33.9,26.7,21.7,-002.2,0014.62,0012.02,0011.52
2021-11-02 23:36:00,,0830.4,4.99,0.00,24.9,24.1,00.0,33.9,26.7,21.7,-002.4,0014.58,0012.03,0011.51
2021-11-02 23:37:00,,0830.4,5.01,0.00,24.9,24.1,00.0,33.9,26.7,21.7,-002.5,0014.54,0012.05,0011.51
2021-11-02 23:38:00,,0830.5,4.99,0.00,24.9,24.1,00.0,33.9,26.7,21.8,-002.4,0014.60,0012.05,0011.52
2021-11-02 23:39:00,,0830.5,5.00,0.00,24.9,24.1,00.0,33.9,26.8,21.8,-002.4,0014.64,0012.05,0011.53
2021-11-02 23:40:00,,0830.4,5.00,0.00,24.9,24.1,00.0,33.9,26.8,21.8,-002.4,0014.57,0012.03,0011.53
2021-11-02 23:41:00,,0830.4,4.99,0.00,24.9,24.1,00.0,33.9,26.8,21.8,-002.1,0014.64,0012.04,0011.54
2021-11-02 23:42:00,,0830.4,5.00,0.00,24.9,24.1,00.0,33.9,26.8,21.8,-002.1,0014.60,0012.02,0011.56
2021-11-02 23:43:00,,0830.4,5.01,0.00,24.9,24.1,00.0,33.9,26.7,21.9,-002.1,0014.62,0012.01,0011.55
2021-11-02 23:44:00,,0830.4,5.00,0.00,24.9,24.1,00.0,33.9,26.7,21.8,-002.0,0014.58,0012.00,0011.56
2021-11-02 23:45:00,,0830.4,5.00,0.00,24.9,24.1,00.0,33.9,26.8,21.8,-001.8,0014.56,0012.00,0011.56
2021-11-02 23:46:00,,0830.4,5.01,0.00,24.9,24.1,00.0,33.9,26.7,21.8,-001.7,0014.53,0012.03,0011.59
2021-11-02 23:47:00,,0830.4,4.99,0.00,24.9,24.1,00.0,33.9,26.7,21.8,-001.5,0014.74,0012.03,0011.61
2021-11-02 23:48:00,,0830.4,5.00,0.00,24.9,24.1,00.0,33.9,26.7,21.9,-001.5,0014.98,0012.04,0011.61
2021-11-02 23:49:00,,0830.4,5.00,0.00,24.9,24.1,00.0,33.9,26.7,21.9,-001.4,0015.05,0012.04,0011.61
2021-11-02 23:50:00,,0830.5,4.99,0.00,24.9,24.1,00.0,33.9,26.7,22.0,-001.4,0015.01,0012.04,0011.62
2021-11-02 23:51:00,,0830.4,5.00,0.00,24.9,24.1,00.0,33.9,26.7,22.1,-001.5,0015.05,0012.07,0011.62
2021-11-02 23:52:00,,0830.5,4.99,0.00,24.9,24.1,00.0,33.9,26.7,22.1,-001.6,0015.10,0012.12,0011.62
2021-11-02 23:53:00,,0830.5,5.00,0.00,24.9,24.1,00.0,33.9,26.7,22.2,-001.5,0015.19,0012.17,0011.63
2021-11-02 23:54:00,,0830.5,5.00,0.00,24.9,24.1,00.0,33.9,26.8,22.2,-001.4,0015.22,0012.20,0011.65
2021-11-02 23:55:00,,0830.5,5.00,0.00,24.9,24.1,00.0,33.9,26.7,22.3,-001.5,0015.35,0012.25,0011.66
2021-11-02 23:56:00,,0830.5,4.99,0.00,24.9,24.1,00.0,33.9,26.7,22.3,-001.5,0016.14,0012.32,0011.67
2021-11-02 23:57:00,,0830.5,5.01,0.00,24.9,24.1,00.0,33.9,26.8,22.2,-001.4,0016.28,0012.32,0011.67
2021-11-02 23:58:00,,0830.5,4.99,0.00,24.9,24.1,00.0,33.9,26.8,22.2,-001.4,0016.40,0012.31,0011.65
2021-11-02 23:59:00,,0830.5,5.01,0.00,24.9,24.1,00.0,33.9,26.8,22.2,-001.3,0016.47,0012.30,0011.66
